Tracking 27124 objects as of 31-Mar-2023
HD Live streaming from Space Station
objects crossing your sky now

APSTAR 1

Track APSTAR 1 now!
APSTAR 1 is classified as:


NORAD ID: 23185
Int'l Code: 1994-043A
Perigee: 36,014.4 km
Apogee: 36,077.6 km
Inclination: 12.1 °
Period: 1,449.0 minutes
Semi major axis: 42417 km
RCS: 25.1188 m2 (large)
Launch date: July 21, 1994
Source: People's Republic of China (PRC)
Launch site: Xichang Space Center, China (XSC)

24 C-band transponders.
Your satellite tracking list
Your tracking list is empty




NASA's NSSDC Master Catalog

Two Line Element Set (TLE):
1 23185U 94043A   23089.74586377 -.00000310  00000-0  00000-0 0  9993
2 23185  12.1159  25.7793 0007450  27.4921 169.6959  0.99378505 33405
Source of the keplerian elements: AFSPC